| time (UTC) | temp F | wind direction | speed MPH | gust MPH | rain 1hr in | rain 24hr in | rain mn in | humidity % | barometer mb |
| 20260510174831 | 62 | 344 | 2.0 | 6.0 | 0.00 | 0.00 | 0.00 | 41 | 1019.2 |
| 20260510174335 | 62 | 355 | 3.0 | 8.0 | 0.00 | 0.00 | 0.00 | 41 | 1019.3 |
| 20260510173836 | 62 | 226 | 3.0 | 8.0 | 0.00 | 0.00 | 0.00 | 41 | 1019.1 |
| 20260510173329 | 62 | 293 | 2.0 | 7.0 | 0.00 | 0.00 | 0.00 | 40 | 1019.1 |
| 20260510172830 | 62 | 170 | 2.0 | 7.0 | 0.00 | 0.00 | 0.00 | 45 | 1019.0 |
| 20260510172335 | 62 | 140 | 2.0 | 4.0 | 0.00 | 0.00 | 0.00 | 43 | 1018.9 |
| 20260510171842 | 62 | 259 | 1.0 | 4.0 | 0.00 | 0.00 | 0.00 | 43 | 1018.9 |
| 20260510171328 | 61 | 197 | 1.0 | 5.0 | 0.00 | 0.00 | 0.00 | 45 | 1018.9 |
| 20260510170831 | 61 | 153 | 2.0 | 5.0 | 0.00 | 0.00 | 0.00 | 45 | 1018.9 |
| 20260510170341 | 61 | 32 | 2.0 | 6.0 | 0.00 | 0.00 | 0.00 | 43 | 1019.0 |
| 20260510165822 | 61 | 174 | 3.0 | 6.0 | 0.00 | 0.00 | 0.00 | 44 | 1019.0 |
| 20260510165330 | 61 | 315 | 2.0 | 4.0 | 0.00 | 0.00 | 0.00 | 46 | 1019.0 |
| 20260510164830 | 60 | 222 | 1.0 | 4.0 | 0.00 | 0.00 | 0.00 | 46 | 1019.0 |
| 20260510164339 | 60 | 15 | 2.0 | 5.0 | 0.00 | 0.00 | 0.00 | 44 | 1019.0 |
| 20260510163818 | 60 | 250 | 1.0 | 7.0 | 0.00 | 0.00 | 0.00 | 47 | 1019.0 |
| 20260510163327 | 60 | 158 | 1.0 | 7.0 | 0.00 | 0.00 | 0.00 | 47 | 1018.9 |
| 20260510162857 | 59 | 176 | 3.0 | 6.0 | 0.00 | 0.00 | 0.00 | 48 | 1018.9 |
| 20260510162345 | 59 | 277 | 2.0 | 6.0 | 0.00 | 0.00 | 0.00 | 48 | 1018.8 |
| 20260510161842 | 59 | 156 | 3.0 | 5.0 | 0.00 | 0.00 | 0.00 | 49 | 1018.7 |
| 20260510161334 | 59 | 303 | 2.0 | 3.0 | 0.00 | 0.00 | 0.00 | 48 | 1018.8 |
| 20260510160834 | 58 | 31 | 2.0 | 3.0 | 0.00 | 0.00 | 0.00 | 51 | 1018.7 |
| 20260510160335 | 58 | 192 | 1.0 | 6.0 | 0.00 | 0.00 | 0.00 | 54 | 1018.7 |
| 20260510155841 | 58 | 182 | 3.0 | 8.0 | 0.00 | 0.00 | 0.00 | 54 | 1018.7 |
| 20260510155326 | 57 | 210 | 3.0 | 8.0 | 0.00 | 0.00 | 0.00 | 56 | 1018.6 |
| 20260510154830 | 57 | 107 | 2.0 | 7.0 | 0.00 | 0.00 | 0.00 | 55 | 1018.6 |
| 20260510154319 | 57 | 170 | 3.0 | 7.0 | 0.00 | 0.00 | 0.00 | 53 | 1018.6 |
| 20260510153825 | 56 | 202 | 2.0 | 7.0 | 0.00 | 0.00 | 0.00 | 53 | 1018.6 |
| 20260510153340 | 56 | 202 | 2.0 | 7.0 | 0.00 | 0.00 | 0.00 | 56 | 1018.5 |
| 20260510152850 | 56 | 298 | 1.0 | 3.0 | 0.00 | 0.00 | 0.00 | 56 | 1018.5 |
| 20260510152334 | 55 | 333 | 1.0 | 3.0 | 0.00 | 0.00 | 0.00 | 57 | 1018.4 |
| 20260510151831 | 55 | 178 | 2.0 | 3.0 | 0.00 | 0.00 | 0.00 | 57 | 1018.4 |
| 20260510151337 | 54 | 172 | 1.0 | 5.0 | 0.00 | 0.00 | 0.00 | 59 | 1018.3 |
| 20260510150835 | 54 | 124 | 1.0 | 5.0 | 0.00 | 0.00 | 0.00 | 56 | 1018.3 |
| 20260510150320 | 53 | 52 | 1.0 | 4.0 | 0.00 | 0.00 | 0.00 | 59 | 1018.2 |
| 20260510145835 | 53 | 221 | 1.0 | 4.0 | 0.00 | 0.00 | 0.00 | 60 | 1018.2 |
| 20260510145321 | 52 | 322 | 1.0 | 3.0 | 0.00 | 0.00 | 0.00 | 64 | 1018.1 |
| 20260510144851 | 52 | 323 | 1.0 | 3.0 | 0.00 | 0.00 | 0.00 | 64 | 1018.1 |
| 20260510144332 | 52 | 5 | 1.0 | 5.0 | 0.00 | 0.00 | 0.00 | 63 | 1018.0 |
| 20260510143816 | 51 | 117 | 2.0 | 5.0 | 0.00 | 0.00 | 0.00 | 66 | 1017.9 |
| 20260510143328 | 51 | 13 | 1.0 | 4.0 | 0.00 | 0.00 | 0.00 | 65 | 1017.9 |
| 20260510142833 | 50 | 186 | 1.0 | 4.0 | 0.00 | 0.00 | 0.00 | 67 | 1017.9 |
| 20260510142322 | 50 | 204 | 1.0 | 4.0 | 0.00 | 0.00 | 0.00 | 68 | 1017.7 |
| 20260510141827 | 49 | 337 | 1.0 | 4.0 | 0.00 | 0.00 | 0.00 | 65 | 1017.6 |
| 20260510141333 | 49 | 202 | 1.0 | 5.0 | 0.00 | 0.00 | 0.00 | 72 | 1017.6 |
| 20260510140840 | 48 | 196 | 3.0 | 5.0 | 0.00 | 0.00 | 0.00 | 72 | 1017.6 |
| 20260510140321 | 48 | 162 | 1.0 | 3.0 | 0.00 | 0.00 | 0.00 | 71 | 1017.5 |
| 20260510135823 | 47 | 161 | 2.0 | 3.0 | 0.00 | 0.00 | 0.00 | 70 | 1017.5 |
| 20260510135359 | 47 | 54 | 1.0 | 3.0 | 0.00 | 0.00 | 0.00 | 70 | 1017.5 |
| 20260510134841 | 47 | 77 | 2.0 | 3.0 | 0.00 | 0.00 | 0.00 | 75 | 1017.5 |
| 20260510134349 | 46 | 171 | 1.0 | 3.0 | 0.00 | 0.00 | 0.00 | 79 | 1017.4 |
| 20260510133816 | 46 | 154 | 1.0 | 3.0 | 0.00 | 0.00 | 0.00 | 81 | 1017.3 |
| 20260510133355 | 45 | 152 | 1.0 | 2.0 | 0.00 | 0.00 | 0.00 | 83 | 1017.2 |
| 20260510132818 | 45 | 152 | 0.0 | 2.0 | 0.00 | 0.00 | 0.00 | 85 | 1017.2 |
| 20260510132352 | 45 | 152 | 1.0 | 2.0 | 0.00 | 0.00 | 0.00 | 86 | 1017.1 |
| 20260510131834 | 44 | 148 | 0.0 | 2.0 | 0.00 | 0.00 | 0.00 | 87 | 1017.1 |
| 20260510131338 | 44 | 148 | 0.0 | 2.0 | 0.00 | 0.00 | 0.00 | 88 | 1017.1 |
| 20260510130829 | 44 | 205 | 0.0 | 1.0 | 0.00 | 0.00 | 0.00 | 88 | 1017.0 |
| 20260510130343 | 43 | 205 | 0.0 | 2.0 | 0.00 | 0.00 | 0.00 | 89 | 1017.0 |
| 20260510125839 | 43 | 205 | 1.0 | 2.0 | 0.00 | 0.00 | 0.00 | 89 | 1017.0 |
| 20260510125320 | 42 | 205 | 1.0 | 2.0 | 0.00 | 0.00 | 0.00 | 89 | 1017.0 |
| 20260510124828 | 42 | 205 | 0.0 | 3.0 | 0.00 | 0.00 | 0.00 | 90 | 1017.0 |
| 20260510124336 | 41 | 205 | 0.0 | 2.0 | 0.00 | 0.00 | 0.00 | 90 | 1016.9 |
| 20260510123845 | 41 | 205 | 0.0 | 2.0 | 0.00 | 0.00 | 0.00 | 90 | 1016.9 |
| 20260510123352 | 40 | 211 | 0.0 | 1.0 | 0.00 | 0.00 | 0.00 | 89 | 1016.8 |
| 20260510122838 | 40 | 211 | 0.0 | 0.0 | 0.00 | 0.00 | 0.00 | 89 | 1016.8 |
| 20260510122345 | 40 | 211 | 0.0 | 0.0 | 0.00 | 0.00 | 0.00 | 89 | 1016.7 |
| 20260510121834 | 39 | 211 | 0.0 | 0.0 | 0.00 | 0.00 | 0.00 | 88 | 1016.8 |
| 20260510121347 | 39 | 211 | 0.0 | 0.0 | 0.00 | 0.00 | 0.00 | 88 | 1016.6 |
| 20260510120855 | 39 | 211 | 0.0 | 0.0 | 0.00 | 0.00 | 0.00 | 88 | 1016.6 |
| 20260510120343 | 39 | 211 | 0.0 | 0.0 | 0.00 | 0.00 | 0.00 | 87 | 1016.5 |
| 20260510115828 | 39 | 211 | 0.0 | 0.0 | 0.00 | 0.00 | 0.00 | 87 | 1016.4 |
| 20260510115341 | 39 | 211 | 0.0 | 0.0 | 0.00 | 0.00 | 0.00 | 87 | 1016.4 |
| 20260510114836 | 39 | 211 | 0.0 | 0.0 | 0.00 | 0.00 | 0.00 | 86 | 1016.4 |
| 20260510114322 | 39 | 211 | 0.0 | 0.0 | 0.00 | 0.00 | 0.00 | 86 | 1016.2 |
| 20260510113829 | 39 | 211 | 0.0 | 0.0 | 0.00 | 0.00 | 0.00 | 86 | 1016.1 |
| 20260510113334 | 39 | 211 | 0.0 | 0.0 | 0.00 | 0.00 | 0.00 | 85 | 1016.0 |
| 20260510112840 | 39 | 211 | 0.0 | 0.0 | 0.00 | 0.00 | 0.00 | 85 | 1015.9 |
| 20260510112331 | 39 | 211 | 0.0 | 0.0 | 0.00 | 0.00 | 0.00 | 85 | 1015.9 |
| 20260510111821 | 39 | 211 | 0.0 | 0.0 | 0.00 | 0.00 | 0.00 | 84 | 1015.8 |
| 20260510111331 | 39 | 211 | 0.0 | 0.0 | 0.00 | 0.00 | 0.00 | 84 | 1015.8 |
| 20260510110814 | 39 | 211 | 0.0 | 0.0 | 0.00 | 0.00 | 0.00 | 84 | 1015.7 |
| 20260510110320 | 39 | 211 | 0.0 | 0.0 | 0.00 | 0.00 | 0.00 | 85 | 1015.7 |
| 20260510105817 | 39 | 211 | 0.0 | 0.0 | 0.00 | 0.00 | 0.00 | 84 | 1015.6 |
| 20260510105323 | 39 | 211 | 0.0 | 0.0 | 0.00 | 0.00 | 0.00 | 84 | 1015.6 |
| 20260510104819 | 39 | 211 | 0.0 | 0.0 | 0.00 | 0.00 | 0.00 | 84 | 1015.5 |
| 20260510104326 | 40 | 211 | 0.0 | 0.0 | 0.00 | 0.00 | 0.00 | 84 | 1015.4 |
| 20260510103838 | 40 | 211 | 0.0 | 0.0 | 0.00 | 0.00 | 0.00 | 85 | 1015.4 |
| 20260510103325 | 40 | 211 | 0.0 | 0.0 | 0.00 | 0.00 | 0.00 | 85 | 1015.4 |
| 20260510102839 | 40 | 211 | 0.0 | 0.0 | 0.00 | 0.00 | 0.00 | 85 | 1015.4 |
| 20260510102323 | 40 | 211 | 0.0 | 0.0 | 0.00 | 0.00 | 0.00 | 86 | 1015.4 |
| 20260510101821 | 40 | 211 | 0.0 | 0.0 | 0.00 | 0.00 | 0.00 | 86 | 1015.3 |
| 20260510101333 | 41 | 211 | 0.0 | 0.0 | 0.00 | 0.00 | 0.00 | 86 | 1015.2 |
| 20260510100818 | 41 | 211 | 0.0 | 0.0 | 0.00 | 0.00 | 0.00 | 87 | 1015.2 |
| 20260510100326 | 41 | 211 | 0.0 | 0.0 | 0.00 | 0.00 | 0.00 | 87 | 1015.1 |
| 20260510095828 | 41 | 211 | 0.0 | 0.0 | 0.00 | 0.00 | 0.00 | 87 | 1014.9 |
| 20260510095332 | 41 | 211 | 0.0 | 0.0 | 0.00 | 0.00 | 0.00 | 87 | 1014.9 |
| 20260510094835 | 41 | 211 | 0.0 | 0.0 | 0.00 | 0.00 | 0.00 | 87 | 1014.8 |
| 20260510094324 | 42 | 211 | 0.0 | 0.0 | 0.00 | 0.00 | 0.00 | 87 | 1014.7 |
| 20260510093827 | 42 | 211 | 0.0 | 0.0 | 0.00 | 0.00 | 0.00 | 87 | 1014.6 |
| 20260510093330 | 42 | 211 | 0.0 | 0.0 | 0.00 | 0.00 | 0.00 | 86 | 1014.6 |
| 20260510092830 | 42 | 211 | 0.0 | 0.0 | 0.00 | 0.00 | 0.00 | 85 | 1014.5 |
| 20260510092331 | 42 | 211 | 0.0 | 0.0 | 0.00 | 0.00 | 0.00 | 84 | 1014.4 |
| 20260510091814 | 42 | 211 | 0.0 | 0.0 | 0.00 | 0.00 | 0.00 | 84 | 1014.3 |
| 20260510091322 | 43 | 211 | 0.0 | 0.0 | 0.00 | 0.00 | 0.00 | 84 | 1014.2 |
| 20260510090826 | 43 | 211 | 0.0 | 0.0 | 0.00 | 0.00 | 0.00 | 84 | 1014.2 |
| 20260510090336 | 43 | 211 | 0.0 | 0.0 | 0.00 | 0.00 | 0.00 | 84 | 1014.2 |
| 20260510085842 | 43 | 211 | 0.0 | 1.0 | 0.00 | 0.00 | 0.00 | 85 | 1014.0 |
| 20260510085336 | 44 | 211 | 0.0 | 1.0 | 0.00 | 0.00 | 0.00 | 85 | 1013.9 |
| 20260510084835 | 44 | 211 | 0.0 | 1.0 | 0.00 | 0.00 | 0.00 | 85 | 1014.0 |
| 20260510084324 | 44 | 211 | 0.0 | 1.0 | 0.00 | 0.00 | 0.00 | 84 | 1013.9 |
| 20260510083830 | 44 | 211 | 0.0 | 0.0 | 0.00 | 0.00 | 0.00 | 83 | 1013.8 |
| 20260510083322 | 44 | 211 | 0.0 | 0.0 | 0.00 | 0.00 | 0.00 | 83 | 1013.8 |
| 20260510082828 | 44 | 211 | 0.0 | 0.0 | 0.00 | 0.00 | 0.00 | 83 | 1013.6 |
| 20260510082323 | 45 | 211 | 0.0 | 0.0 | 0.00 | 0.00 | 0.00 | 83 | 1013.5 |
| 20260510081856 | 45 | 211 | 0.0 | 0.0 | 0.00 | 0.00 | 0.00 | 82 | 1013.4 |
| 20260510081319 | 45 | 211 | 0.0 | 0.0 | 0.00 | 0.00 | 0.00 | 83 | 1013.4 |
| 20260510080825 | 45 | 211 | 0.0 | 0.0 | 0.00 | 0.00 | 0.00 | 82 | 1013.3 |
| 20260510080322 | 45 | 211 | 0.0 | 0.0 | 0.00 | 0.00 | 0.00 | 82 | 1013.1 |
| 20260510075818 | 45 | 211 | 0.0 | 0.0 | 0.00 | 0.00 | 0.00 | 81 | 1013.1 |
| 20260510075323 | 45 | 211 | 0.0 | 0.0 | 0.00 | 0.00 | 0.00 | 79 | 1012.9 |
| 20260510074833 | 45 | 211 | 0.0 | 0.0 | 0.00 | 0.00 | 0.00 | 75 | 1013.0 |
| 20260510074339 | 46 | 211 | 0.0 | 1.0 | 0.00 | 0.00 | 0.00 | 72 | 1012.9 |
| 20260510073820 | 46 | 211 | 0.0 | 1.0 | 0.00 | 0.00 | 0.00 | 71 | 1012.8 |
| 20260510073332 | 46 | 211 | 0.0 | 1.0 | 0.00 | 0.00 | 0.00 | 71 | 1012.7 |
| 20260510072822 | 46 | 211 | 0.0 | 1.0 | 0.00 | 0.00 | 0.00 | 72 | 1012.6 |
| 20260510072331 | 46 | 211 | 0.0 | 2.0 | 0.00 | 0.00 | 0.00 | 72 | 1012.6 |
| 20260510071831 | 46 | 211 | 0.0 | 0.0 | 0.00 | 0.00 | 0.00 | 71 | 1012.4 |
| 20260510071321 | 46 | 211 | 0.0 | 0.0 | 0.00 | 0.00 | 0.00 | 72 | 1012.4 |
| 20260510070855 | 46 | 211 | 0.0 | 1.0 | 0.00 | 0.00 | 0.00 | 73 | 1012.4 |
| 20260510070319 | 46 | 211 | 0.0 | 4.0 | 0.00 | 0.00 | 0.00 | 72 | 1012.3 |
| 20260510065822 | 47 | 211 | 0.0 | 4.0 | 0.00 | 0.00 | 0.00 | 72 | 1012.3 |
| 20260510065320 | 47 | 119 | 0.0 | 3.0 | 0.00 | 0.00 | 0.00 | 73 | 1012.2 |
| 20260510064852 | 47 | 119 | 1.0 | 3.0 | 0.00 | 0.00 | 0.00 | 73 | 1012.2 |
| 20260510064321 | 47 | 69 | 0.0 | 5.0 | 0.00 | 0.00 | 0.00 | 74 | 1012.2 |
| 20260510063855 | 47 | 69 | 0.0 | 8.0 | 0.00 | 0.00 | 0.00 | 74 | 1012.3 |
| 20260510063323 | 47 | 161 | 1.0 | 3.0 | 0.00 | 0.00 | 0.00 | 74 | 1012.3 |
| 20260510062833 | 47 | 260 | 1.0 | 4.0 | 0.00 | 0.00 | 0.00 | 76 | 1012.2 |
| 20260510062338 | 47 | 132 | 1.0 | 4.0 | 0.00 | 0.00 | 0.00 | 77 | 1012.2 |
| 20260510061848 | 47 | 213 | 1.0 | 3.0 | 0.00 | 0.00 | 0.00 | 80 | 1012.2 |
| 20260510061331 | 47 | 257 | 1.0 | 3.0 | 0.00 | 0.00 | 0.00 | 82 | 1012.1 |
| 20260510060817 | 47 | 16 | 1.0 | 3.0 | 0.00 | 0.00 | 0.00 | 83 | 1012.0 |
| 20260510060330 | 47 | 299 | 0.0 | 3.0 | 0.00 | 0.00 | 0.00 | 85 | 1012.0 |
| 20260510055828 | 47 | 213 | 1.0 | 5.0 | 0.00 | 0.00 | 0.00 | 86 | 1011.9 |
| 20260510055402 | 47 | 215 | 2.0 | 8.0 | 0.00 | 0.00 | 0.00 | 86 | 1011.7 |
| 20260510054840 | 47 | 272 | 2.0 | 7.0 | 0.00 | 0.00 | 0.00 | 87 | 1011.5 |
| 20260510054328 | 47 | 254 | 0.0 | 3.0 | 0.00 | 0.00 | 0.00 | 87 | 1011.4 |
| 20260510053857 | 48 | 17 | 1.0 | 2.0 | 0.00 | 0.00 | 0.00 | 88 | 1011.3 |
| 20260510053323 | 48 | 15 | 0.0 | 2.0 | 0.00 | 0.00 | 0.00 | 88 | 1011.2 |
| 20260510052852 | 48 | 15 | 0.0 | 1.0 | 0.00 | 0.00 | 0.00 | 88 | 1011.0 |
| 20260510052337 | 48 | 15 | 0.0 | 1.0 | 0.00 | 0.00 | 0.00 | 88 | 1011.0 |
| 20260510051818 | 48 | 15 | 0.0 | 0.0 | 0.00 | 0.00 | 0.00 | 87 | 1010.8 |
| 20260510051324 | 49 | 15 | 0.0 | 1.0 | 0.00 | 0.00 | 0.00 | 86 | 1010.7 |
| 20260510050830 | 49 | 15 | 0.0 | 1.0 | 0.00 | 0.00 | 0.00 | 85 | 1010.6 |
| 20260510050321 | 49 | 15 | 0.0 | 0.0 | 0.00 | 0.00 | 0.00 | 85 | 1010.6 |
| 20260510045822 | 49 | 15 | 0.0 | 0.0 | 0.00 | 0.00 | 0.00 | 85 | 1010.4 |
| 20260510045320 | 49 | 15 | 0.0 | 0.0 | 0.00 | 0.00 | 0.00 | 85 | 1010.4 |
| 20260510044850 | 49 | 15 | 0.0 | 0.0 | 0.00 | 0.00 | 0.00 | 83 | 1010.3 |
| 20260510044338 | 50 | 15 | 0.0 | 0.0 | 0.00 | 0.00 | 0.00 | 81 | 1010.0 |
| 20260510043848 | 50 | 15 | 0.0 | 0.0 | 0.00 | 0.00 | 0.00 | 84 | 1010.0 |
| 20260510043337 | 50 | 15 | 0.0 | 0.0 | 0.00 | 0.00 | 0.00 | 85 | 1009.9 |
| 20260510042823 | 50 | 15 | 0.0 | 0.0 | 0.00 | 0.00 | 0.00 | 84 | 1009.8 |
| 20260510042333 | 50 | 15 | 0.0 | 0.0 | 0.00 | 0.00 | 0.00 | 84 | 1009.7 |
| 20260510041836 | 50 | 15 | 0.0 | 1.0 | 0.00 | 0.00 | 0.00 | 83 | 1009.7 |
| 20260510041341 | 50 | 15 | 0.0 | 1.0 | 0.00 | 0.00 | 0.00 | 83 | 1009.6 |
| 20260510040816 | 51 | 15 | 0.0 | 0.0 | 0.00 | 0.00 | 0.00 | 82 | 1009.4 |
| 20260510040326 | 51 | 15 | 0.0 | 0.0 | 0.00 | 0.00 | 0.00 | 82 | 1009.4 |
| 20260510035845 | 51 | 15 | 0.0 | 1.0 | 0.00 | 0.00 | 0.00 | 82 | 1009.3 |
| 20260510035321 | 51 | 15 | 0.0 | 1.0 | 0.00 | 0.00 | 0.00 | 81 | 1009.2 |
| 20260510034824 | 51 | 15 | 0.0 | 1.0 | 0.00 | 0.00 | 0.00 | 81 | 1009.2 |
| 20260510034336 | 51 | 15 | 0.0 | 1.0 | 0.00 | 0.00 | 0.00 | 80 | 1009.1 |
| 20260510033838 | 51 | 15 | 0.0 | 1.0 | 0.00 | 0.00 | 0.00 | 79 | 1009.1 |
| 20260510033346 | 52 | 15 | 0.0 | 1.0 | 0.00 | 0.00 | 0.00 | 79 | 1009.0 |
| 20260510032828 | 52 | 15 | 0.0 | 1.0 | 0.00 | 0.00 | 0.00 | 78 | 1008.9 |
| 20260510032335 | 52 | 15 | 0.0 | 0.0 | 0.00 | 0.00 | 0.00 | 77 | 1008.9 |
| 20260510031818 | 52 | 15 | 0.0 | 0.0 | 0.00 | 0.00 | 0.00 | 77 | 1008.7 |
| 20260510031321 | 52 | 15 | 0.0 | 0.0 | 0.00 | 0.00 | 0.00 | 75 | 1008.6 |
| 20260510030826 | 53 | 15 | 0.0 | 0.0 | 0.00 | 0.00 | 0.00 | 75 | 1008.5 |
| 20260510030319 | 53 | 15 | 0.0 | 0.0 | 0.00 | 0.00 | 0.00 | 73 | 1008.4 |
| 20260510025821 | 53 | 15 | 0.0 | 1.0 | 0.00 | 0.00 | 0.00 | 73 | 1008.3 |
| 20260510025327 | 53 | 15 | 0.0 | 2.0 | 0.00 | 0.00 | 0.00 | 73 | 1008.4 |
| 20260510024832 | 53 | 15 | 0.0 | 2.0 | 0.00 | 0.00 | 0.00 | 73 | 1008.4 |
| 20260510024335 | 53 | 15 | 0.0 | 1.0 | 0.00 | 0.00 | 0.00 | 72 | 1008.2 |
| 20260510023840 | 54 | 15 | 0.0 | 1.0 | 0.00 | 0.00 | 0.00 | 71 | 1008.2 |
| 20260510023343 | 54 | 15 | 0.0 | 1.0 | 0.00 | 0.00 | 0.00 | 71 | 1008.2 |
| 20260510022836 | 54 | 15 | 0.0 | 1.0 | 0.00 | 0.00 | 0.00 | 71 | 1008.1 |
| 20260510022321 | 54 | 15 | 0.0 | 1.0 | 0.00 | 0.00 | 0.00 | 70 | 1008.1 |
| 20260510021819 | 54 | 15 | 0.0 | 1.0 | 0.00 | 0.00 | 0.00 | 70 | 1007.9 |
| 20260510021324 | 54 | 15 | 0.0 | 1.0 | 0.00 | 0.00 | 0.00 | 69 | 1007.8 |
| 20260510020853 | 55 | 15 | 0.0 | 2.0 | 0.00 | 0.00 | 0.00 | 69 | 1007.7 |
| 20260510020316 | 55 | 15 | 0.0 | 2.0 | 0.00 | 0.00 | 0.00 | 68 | 1007.6 |
| 20260510015826 | 55 | 15 | 0.0 | 1.0 | 0.00 | 0.00 | 0.00 | 69 | 1007.6 |
| 20260510015321 | 55 | 15 | 0.0 | 2.0 | 0.00 | 0.00 | 0.00 | 68 | 1007.6 |
| 20260510014827 | 55 | 15 | 0.0 | 2.0 | 0.00 | 0.00 | 0.00 | 68 | 1007.5 |
| 20260510014334 | 55 | 15 | 0.0 | 3.0 | 0.00 | 0.00 | 0.00 | 67 | 1007.4 |
| 20260510013834 | 56 | 9 | 0.0 | 3.0 | 0.00 | 0.00 | 0.00 | 67 | 1007.3 |
| 20260510013320 | 56 | 236 | 1.0 | 3.0 | 0.00 | 0.00 | 0.00 | 69 | 1007.2 |
| 20260510012836 | 56 | 234 | 1.0 | 3.0 | 0.00 | 0.00 | 0.00 | 68 | 1007.1 |
| 20260510012323 | 56 | 159 | 1.0 | 3.0 | 0.00 | 0.00 | 0.00 | 68 | 1006.9 |
| 20260510011826 | 56 | 202 | 1.0 | 3.0 | 0.00 | 0.00 | 0.00 | 68 | 1006.8 |
| 20260510011331 | 57 | 190 | 1.0 | 3.0 | 0.00 | 0.00 | 0.00 | 68 | 1006.8 |
| 20260510010818 | 57 | 171 | 0.0 | 3.0 | 0.00 | 0.00 | 0.00 | 67 | 1006.7 |
| 20260510010331 | 57 | 169 | 0.0 | 3.0 | 0.00 | 0.00 | 0.00 | 66 | 1006.7 |
| 20260510005821 | 57 | 140 | 0.0 | 3.0 | 0.00 | 0.00 | 0.00 | 65 | 1006.5 |
| 20260510005329 | 57 | 136 | 0.0 | 2.0 | 0.00 | 0.00 | 0.00 | 66 | 1006.4 |
| 20260510004817 | 58 | 136 | 1.0 | 2.0 | 0.00 | 0.00 | 0.00 | 66 | 1006.4 |
| 20260510004355 | 58 | 136 | 0.0 | 3.0 | 0.00 | 0.00 | 0.00 | 64 | 1006.3 |
| 20260510003824 | 58 | 136 | 0.0 | 3.0 | 0.00 | 0.00 | 0.00 | 64 | 1006.4 |
| 20260510003403 | 58 | 136 | 0.0 | 2.0 | 0.00 | 0.00 | 0.00 | 64 | 1006.2 |
| 20260510002853 | 58 | 136 | 1.0 | 2.0 | 0.00 | 0.00 | 0.00 | 63 | 1006.2 |
| 20260510002339 | 58 | 119 | 1.0 | 2.0 | 0.00 | 0.00 | 0.00 | 62 | 1006.1 |
| 20260510001819 | 59 | 118 | 1.0 | 3.0 | 0.00 | 0.00 | 0.00 | 62 | 1006.0 |
| 20260510001324 | 59 | 118 | 1.0 | 3.0 | 0.00 | 0.00 | 0.00 | 62 | 1006.0 |
| 20260510000831 | 59 | 5 | 1.0 | 5.0 | 0.00 | 0.00 | 0.00 | 62 | 1005.9 |
| 20260510000348 | 59 | 246 | 1.0 | 5.0 | 0.00 | 0.00 | 0.00 | 64 | 1005.8 |
| 20260509235831 | 59 | 263 | 1.0 | 5.0 | 0.00 | 0.00 | 0.00 | 64 | 1005.6 |
| 20260509235330 | 59 | 251 | 2.0 | 4.0 | 0.00 | 0.00 | 0.00 | 62 | 1005.6 |
| 20260509234816 | 59 | 153 | 1.0 | 4.0 | 0.00 | 0.00 | 0.00 | 62 | 1005.6 |
| 20260509234325 | 59 | 267 | 2.0 | 4.0 | 0.00 | 0.00 | 0.00 | 62 | 1005.6 |
| 20260509233832 | 59 | 190 | 1.0 | 2.0 | 0.00 | 0.00 | 0.00 | 60 | 1005.5 |
| 20260509233323 | 60 | 190 | 0.0 | 2.0 | 0.00 | 0.00 | 0.00 | 60 | 1005.4 |
| 20260509232856 | 60 | 217 | 0.0 | 3.0 | 0.00 | 0.00 | 0.00 | 58 | 1005.3 |
| 20260509232318 | 60 | 210 | 1.0 | 3.0 | 0.00 | 0.00 | 0.00 | 59 | 1005.2 |
| 20260509231822 | 60 | 210 | 1.0 | 4.0 | 0.00 | 0.00 | 0.00 | 60 | 1005.2 |
| 20260509231334 | 60 | 244 | 2.0 | 5.0 | 0.00 | 0.00 | 0.00 | 58 | 1005.2 |
| 20260509230834 | 60 | 30 | 1.0 | 5.0 | 0.00 | 0.00 | 0.00 | 57 | 1005.0 |
| 20260509230328 | 60 | 249 | 1.0 | 4.0 | 0.00 | 0.00 | 0.00 | 55 | 1005.0 |
| 20260509225819 | 61 | 246 | 1.0 | 5.0 | 0.00 | 0.00 | 0.00 | 55 | 1004.9 |
| 20260509225323 | 61 | 329 | 1.0 | 4.0 | 0.00 | 0.00 | 0.00 | 55 | 1004.8 |
| 20260509224824 | 61 | 280 | 1.0 | 6.0 | 0.00 | 0.00 | 0.00 | 55 | 1004.8 |
| 20260509224358 | 62 | 296 | 2.0 | 6.0 | 0.00 | 0.00 | 0.00 | 56 | 1004.7 |
| 20260509223827 | 63 | 163 | 2.0 | 5.0 | 0.00 | 0.00 | 0.00 | 57 | 1004.6 |
| 20260509223343 | 63 | 279 | 3.0 | 5.0 | 0.00 | 0.00 | 0.00 | 58 | 1004.6 |
| 20260509222845 | 64 | 200 | 3.0 | 6.0 | 0.00 | 0.00 | 0.00 | 55 | 1004.4 |
| 20260509222327 | 65 | 254 | 3.0 | 6.0 | 0.00 | 0.00 | 0.00 | 56 | 1004.4 |
| 20260509221830 | 66 | 217 | 3.0 | 5.0 | 0.00 | 0.00 | 0.00 | 60 | 1004.2 |
| 20260509221334 | 66 | 208 | 2.0 | 4.0 | 0.00 | 0.00 | 0.00 | 63 | 1004.1 |
| 20260509220818 | 67 | 270 | 2.0 | 4.0 | 0.00 | 0.00 | 0.00 | 62 | 1004.1 |
| 20260509220320 | 67 | 163 | 1.0 | 5.0 | 0.00 | 0.00 | 0.00 | 63 | 1004.0 |
| 20260509215822 | 67 | 204 | 2.0 | 5.0 | 0.00 | 0.00 | 0.00 | 63 | 1003.9 |
| 20260509215331 | 67 | 164 | 1.0 | 5.0 | 0.00 | 0.00 | 0.00 | 64 | 1003.2 |
| 20260509214837 | 68 | 175 | 1.0 | 4.0 | 0.00 | 0.00 | 0.00 | 64 | 1003.0 |
| 20260509214327 | 68 | 175 | 1.0 | 5.0 | 0.00 | 0.00 | 0.00 | 64 | 1003.0 |
| 20260509213829 | 68 | 173 | 2.0 | 5.0 | 0.00 | 0.00 | 0.00 | 66 | 1002.9 |
| 20260509213338 | 68 | 187 | 2.0 | 4.0 | 0.00 | 0.00 | 0.00 | 65 | 1003.0 |
| 20260509212837 | 69 | 159 | 0.0 | 6.0 | 0.00 | 0.00 | 0.00 | 65 | 1002.9 |
| 20260509212317 | 68 | 180 | 2.0 | 6.0 | 0.00 | 0.00 | 0.00 | 66 | 1002.9 |
| 20260509211843 | 68 | 192 | 2.0 | 6.0 | 0.00 | 0.00 | 0.00 | 66 | 1002.9 |
| 20260509211324 | 68 | 155 | 2.0 | 4.0 | 0.00 | 0.00 | 0.00 | 65 | 1003.0 |
| 20260509210824 | 68 | 205 | 1.0 | 4.0 | 0.00 | 0.00 | 0.00 | 64 | 1003.0 |
| 20260509210334 | 68 | 163 | 1.0 | 4.0 | 0.00 | 0.00 | 0.00 | 65 | 1003.0 |
| 20260509205837 | 68 | 161 | 2.0 | 9.0 | 0.00 | 0.00 | 0.00 | 65 | 1002.9 |
| 20260509205343 | 68 | 163 | 4.0 | 9.0 | 0.00 | 0.00 | 0.00 | 66 | 1003.0 |
| 20260509204833 | 68 | 178 | 2.0 | 5.0 | 0.00 | 0.00 | 0.00 | 65 | 1003.0 |
| 20260509204343 | 68 | 188 | 2.0 | 5.0 | 0.00 | 0.00 | 0.00 | 63 | 1003.0 |
| 20260509203852 | 69 | 167 | 2.0 | 6.0 | 0.00 | 0.00 | 0.00 | 64 | 1003.0 |
| 20260509203320 | 69 | 204 | 1.0 | 5.0 | 0.00 | 0.00 | 0.00 | 63 | 1003.0 |
| 20260509202849 | 69 | 175 | 2.0 | 5.0 | 0.00 | 0.00 | 0.00 | 64 | 1003.0 |
| 20260509202329 | 68 | 229 | 2.0 | 5.0 | 0.00 | 0.00 | 0.00 | 64 | 1003.0 |
| 20260509201829 | 68 | 199 | 2.0 | 5.0 | 0.00 | 0.00 | 0.00 | 66 | 1003.0 |
| 20260509201335 | 68 | 157 | 1.0 | 5.0 | 0.00 | 0.00 | 0.00 | 66 | 1003.0 |
| 20260509200819 | 67 | 143 | 2.0 | 5.0 | 0.00 | 0.00 | 0.00 | 65 | 1003.0 |
| 20260509200352 | 67 | 159 | 2.0 | 6.0 | 0.00 | 0.00 | 0.00 | 67 | 1002.9 |
| 20260509195817 | 67 | 197 | 1.0 | 5.0 | 0.00 | 0.00 | 0.00 | 68 | 1003.0 |
| 20260509195329 | 66 | 230 | 2.0 | 5.0 | 0.00 | 0.00 | 0.00 | 69 | 1003.0 |
| 20260509194830 | 66 | 213 | 2.0 | 6.0 | 0.00 | 0.00 | 0.00 | 70 | 1003.0 |
| 20260509194334 | 65 | 204 | 3.0 | 7.0 | 0.00 | 0.00 | 0.00 | 70 | 1003.1 |
| 20260509193839 | 64 | 238 | 3.0 | 7.0 | 0.00 | 0.00 | 0.00 | 71 | 1003.1 |
| 20260509193337 | 64 | 152 | 1.0 | 5.0 | 0.00 | 0.00 | 0.00 | 73 | 1003.1 |
| 20260509192826 | 63 | 234 | 1.0 | 5.0 | 0.00 | 0.00 | 0.00 | 75 | 1003.1 |
| 20260509192316 | 62 | 169 | 3.0 | 5.0 | 0.00 | 0.00 | 0.00 | 77 | 1003.3 |
| 20260509191851 | 62 | 173 | 3.0 | 5.0 | 0.00 | 0.00 | 0.00 | 77 | 1003.2 |
| 20260509191333 | 61 | 261 | 1.0 | 8.0 | 0.00 | 0.00 | 0.00 | 78 | 1003.3 |
| 20260509190822 | 60 | 217 | 3.0 | 8.0 | 0.00 | 0.00 | 0.00 | 80 | 1003.3 |
| 20260509190325 | 59 | 180 | 1.0 | 5.0 | 0.00 | 0.00 | 0.00 | 81 | 1003.3 |
| 20260509185831 | 58 | 175 | 2.0 | 5.0 | 0.00 | 0.00 | 0.00 | 82 | 1003.2 |
| 20260509185322 | 58 | 172 | 2.0 | 4.0 | 0.00 | 0.00 | 0.00 | 82 | 1003.2 |
| 20260509184832 | 57 | 151 | 3.0 | 6.0 | 0.00 | 0.00 | 0.00 | 82 | 1003.2 |
| 20260509184335 | 57 | 150 | 2.0 | 6.0 | 0.00 | 0.00 | 0.00 | 82 | 1003.3 |
| 20260509183818 | 56 | 219 | 2.0 | 3.0 | 0.00 | 0.00 | 0.00 | 83 | 1003.3 |
| 20260509183334 | 56 | 221 | 1.0 | 4.0 | 0.00 | 0.00 | 0.00 | 83 | 1003.4 |
| 20260509182821 | 56 | 165 | 1.0 | 4.0 | 0.00 | 0.00 | 0.00 | 83 | 1003.5 |
| 20260509182355 | 55 | 221 | 0.0 | 1.0 | 0.00 | 0.00 | 0.00 | 82 | 1003.4 |
| 20260509181818 | 55 | 221 | 0.0 | 6.0 | 0.00 | 0.00 | 0.00 | 82 | 1003.4 |
| 20260509181341 | 55 | 221 | 0.0 | 6.0 | 0.00 | 0.00 | 0.00 | 82 | 1003.4 |
| 20260509180840 | 55 | 185 | 1.0 | 4.0 | 0.00 | 0.00 | 0.00 | 82 | 1003.4 |
| 20260509180331 | 55 | 292 | 0.0 | 4.0 | 0.00 | 0.00 | 0.00 | 82 | 1003.2 |
| 20260509175814 | 55 | 40 | 1.0 | 4.0 | 0.00 | 0.00 | 0.00 | 81 | 1003.3 |
| 20260509175326 | 55 | 178 | 1.0 | 3.0 | 0.00 | 0.00 | 0.00 | 82 | 1003.6 |